{"data":{"norad_id":66791,"intl_designator":"2025-278A","name":"STARLINK-35867","alt_names":[],"object_type":"PAYLOAD","status":"ACTIVE","operator":null,"country":"US","launch_date":"2025-12-01","launch_site_code":"AFETR","launch_vehicle":null,"mission":null,"orbit_class":"UNKNOWN","rcs_meters":null,"size_class":null,"mass_kg":null,"dimensions":null,"purposes":["comms"],"wikipedia_slug":null,"has_3d_model":false,"image_url":null,"decayed_at":null,"tle_current":{"epoch":"2026-09-20T22:17:52.913760Z","epoch_age_seconds":50036,"freshness":"FRESH","line1":"1 66791U 25278A   26263.92908465  .00011955  00000+0  44310-3 0  9990","line2":"2 66791  42.9995  92.1772 0001697  52.3296 307.7709 15.27590726 45069","mean_motion":15.27590726,"eccentricity":0.0001697,"inclination_deg":42.9995,"raan_deg":92.1772,"arg_perigee_deg":52.3296,"mean_anomaly_deg":307.7709,"bstar":0.0004431,"rev_number":4506,"period_min":94.266086818335,"perigee_km":481.85264089473,"apogee_km":484.18131655511,"semimajor_km":6861.1539787249,"source":"CELESTRAK","updated_at":"2026-09-21T09:00:36.013130Z"}}}